DECAYED

STARLINK-32119, 60072 (Decayed)

Orbit data source: Space-Track

STARLINK-32119, 60072 was a payload satellite owned by SpaceX/Seattle (US) in LEO that was launched on Wed, 19 Jun 2024 UTC via an FALCON 9 launch vehicle from the Air Force Western Test Range (AFWTR). Payload-class satellites include a variety of spacecraft equipped with specific instruments for various scientific and technological missions. These include communications satellites like Starlink; space stations such as the ISS; scientific satellites like the Hubble; Earth observation satellites from companies like Planet Labs, Umbra, and HawkEye 360; GPS; miniature CubeSats for education and research; and military/defense satellites.

Not visible in the next 10 days
Identifier
60072, 2024-113P
Orbit
Decayed
Last TLE update
10 months ago
Origin
Manufacturer
SpaceX/Seattle
Mission
Decayed Commercial Communications
Bus & Motor
STARLINK V2M, Unknown motor
Mass
730 kg wet, ~700 kg dry
Launch date (UTC)
2024-06-19 (11 months ago)
Launch vehicle
FALCON 9
Launch site
Air Force Western Test Range (AFWTR)
Object type
Payload
Rocket body
Debris
Shape & HBR
Box + 2 Pan, 29 m
Radar Cross Section
33.884 m², Large (>1 m²)

Expand to show TLE details & history

TLE from 10 months ago
0 STARLINK-32119
1 60072U 24113P   24189.81134567  .07402585  12628-4  20752-3 0  9998
2 60072  53.1745 315.8520 0015137 320.0834 164.4019 16.43981037  3799
Epoch: 2024-07-07T19:28Z
Definitive object data (Epoch: 2024-07-07T19:28:20.265Z)
Latitude
41.39524°
Longitude
-123.50016°
Altitude
168.625 km
Speed
7.805 km/s
True Right ascension
06h 19m 21s
True Declination
41° 12' 34"
Sunlit
Object was in daylight at TLE epoch
Visualization observer readout
Visualization observer readout
Orbital elements
Apogee altitude
165.39 km
Perigee altitude
145.61 km
Semi-major axis
6,533.637 km
Eccentricity
0.0015137
Inclination
53.1745°
RAAN
315.852°
Arg. of periapsis
320.0834°
True anomaly
164.44846°
Mean anomaly
164.4019°
Eccentric anomaly
164.42519°
Mean motion
4.10971 °/min
BSTAR
0.00020752
Orbital period
87.6 mins
Loading maneuver chart data...
Loading SW <> Apogee altitude chart data...
Loading historical data...
Loading historical data...
Loading historical data...
Loading historical data...
Loading historical data...
Loading historical data...
Loading historical data...

STARLINK-32119 Visibility forecast

Observer location: undefined°, undefined°

This satellite is decayed
Span
Click to sort rows by Start time (UTC) header in descending order
Start Az.
Max El. time (UTC)
Max El. Az.
Max El.
End time (UTC)
End Az.
|